DH4SBM Weather Reports


Display with metric or nautical units.
time (UTC)temp
F
wind
direction
speed
MPH
gust
MPH
rain 1hr
in
rain 24hr
in
rain mn
in
humidity
%
barometer
mb
20260505054538 57 0 0.0 0.0 0.00 0.00 0.00 84 1010.9
20260505053538 56 0 0.0 0.0 0.00 0.00 0.00 85 1011.0
20260505052538 56 0 0.0 0.0 0.00 0.00 0.00 86 1011.1
20260505051538 56 0 0.0 0.0 0.00 0.00 0.00 86 1011.1
20260505050538 55 0 0.0 0.0 0.00 0.00 0.00 87 1011.0
20260505041538 54 202 1.0 3.0 0.00 0.00 0.00 86 1011.0
20260505040538 54 202 1.0 3.0 0.00 0.00 0.00 86 1011.0
20260505035538 54 202 1.0 3.0 0.00 0.00 0.00 86 1011.0
20260505034538 54 202 1.0 3.0 0.00 0.00 0.00 85 1010.8
20260505033538 54 202 1.0 3.0 0.00 0.00 0.00 85 1010.9
20260505032538 55 202 1.0 2.0 0.00 0.00 0.00 84 1011.1
20260505031538 55 202 1.0 3.0 0.00 0.00 0.00 83 1011.2
20260505030538 56 202 1.0 2.0 0.00 0.00 0.00 83 1011.4
20260505025538 56 202 1.0 2.0 0.00 0.00 0.00 83 1011.5
20260505024538 56 202 2.0 3.0 0.00 0.00 0.00 82 1011.5
20260505023538 56 202 1.0 3.0 0.00 0.00 0.00 82 1011.5
20260505022538 56 202 2.0 3.0 0.00 0.00 0.00 82 1011.7
20260505021538 56 202 1.0 3.0 0.00 0.00 0.00 82 1011.9
20260505020538 56 202 0.0 2.0 0.00 0.00 0.00 82 1012.1
20260505015536 56 202 2.0 3.0 0.00 0.00 0.00 82 1012.2
20260505014536 56 202 2.0 3.0 0.00 0.00 0.00 82 1012.3
20260505013536 57 202 1.0 3.0 0.00 0.00 0.00 81 1012.5
20260505012536 57 202 1.0 3.0 0.00 0.00 0.00 81 1012.5
20260505011536 57 202 1.0 3.0 0.00 0.00 0.00 81 1012.5
20260505010536 57 202 2.0 3.0 0.00 0.00 0.00 80 1012.7
20260505005536 57 202 1.0 3.0 0.00 0.00 0.00 80 1012.7
20260505004536 58 202 0.0 2.0 0.00 0.00 0.00 79 1012.5
20260505003822 58 202 0.0 2.0 0.00 0.00 0.00 79 1012.6
20260505002821 58 202 1.0 3.0 0.00 0.00 0.00 79 1012.6
20260505001822 58 202 1.0 3.0 0.00 0.00 0.00 79 1012.8
20260505000822 58 0 0.0 0.0 0.00 0.00 0.00 79 1012.8
20260504235822 58 0 0.0 0.0 0.00 0.00 0.00 79 1012.7
20260504234821 58 202 1.0 2.0 0.00 0.00 0.00 79 1012.8
20260504233821 58 202 0.0 1.0 0.00 0.00 0.00 79 1013.0
20260504232819 58 0 0.0 0.0 0.00 0.00 0.00 79 1013.2
20260504231819 58 0 0.0 0.0 0.00 0.00 0.00 78 1013.3
20260504230819 58 202 1.0 3.0 0.00 0.00 0.00 79 1013.3
20260504225819 58 202 1.0 3.0 0.00 0.00 0.00 79 1013.4
20260504224819 58 202 1.0 2.0 0.00 0.00 0.00 78 1013.4
20260504223820 58 202 1.0 2.0 0.00 0.00 0.00 78 1013.5
20260504222820 59 202 1.0 2.0 0.00 0.00 0.00 77 1013.5
20260504221820 59 202 2.0 4.0 0.00 0.00 0.00 77 1013.5
20260504220820 59 225 2.0 4.0 0.00 0.00 0.00 76 1013.4
20260504215820 60 225 1.0 3.0 0.00 0.00 0.00 74 1013.4
20260504214820 61 248 1.0 3.0 0.00 0.00 0.00 73 1013.5
20260504213820 61 0 0.0 0.0 0.00 0.00 0.00 70 1013.5
20260504212820 61 0 0.0 0.0 0.00 0.00 0.00 71 1013.6
20260504212536 61 0 0.0 0.0 0.00 0.00 0.00 71 1013.6
20260504211536 61 0 0.0 0.0 0.00 0.00 0.00 70 1013.7
20260504210536 61 0 0.0 0.0 0.00 0.00 0.00 70 1013.8
20260504205536 61 0 0.0 0.0 0.00 0.00 0.00 69 1014.0
20260504204536 61 0 0.0 0.0 0.00 0.00 0.00 69 1013.9
20260504203536 62 270 0.0 2.0 0.00 0.00 0.00 69 1013.9
20260504202536 62 270 0.0 2.0 0.00 0.00 0.00 68 1013.9
20260504201536 62 270 0.0 1.0 0.00 0.00 0.00 68 1014.1
20260504200536 62 270 0.0 2.0 0.00 0.00 0.00 66 1014.1
20260504195536 62 270 0.0 3.0 0.00 0.00 0.00 66 1014.0
20260504194536 64 270 3.0 3.0 0.00 0.00 0.00 60 1013.9
20260504193536 64 270 3.0 3.0 0.00 0.00 0.00 60 1013.8
20260504192534 64 270 3.0 3.0 0.00 0.00 0.00 60 1013.7
20260504191534 64 270 3.0 3.0 0.00 0.00 0.00 60 1013.7
20260504190534 64 270 3.0 3.0 0.00 0.00 0.00 60 1013.6
20260504185534 64 270 3.0 8.0 0.00 0.00 0.00 60 1013.7
20260504184534 64 292 4.0 7.0 0.00 0.00 0.00 59 1013.5
20260504183545 64 315 5.0 9.0 0.00 0.00 0.00 58 1013.6
20260504182545 65 315 5.0 10.0 0.00 0.00 0.00 57 1013.5
20260504181545 65 315 6.0 11.0 0.00 0.00 0.00 57 1013.5
20260504180545 66 315 5.0 12.0 0.00 0.00 0.00 56 1013.5
20260504175545 66 292 5.0 9.0 0.00 0.00 0.00 56 1013.5
20260504174545 66 315 4.0 9.0 0.00 0.00 0.00 55 1013.4
20260504173545 67 315 4.0 8.0 0.00 0.00 0.00 54 1013.3
20260504172545 67 315 4.0 10.0 0.00 0.00 0.00 54 1013.2
20260504171545 67 315 5.0 8.0 0.00 0.00 0.00 53 1013.1
20260504170545 67 315 5.0 9.0 0.00 0.00 0.00 52 1013.1
20260504150545 72 360 4.0 8.0 0.00 0.00 0.00 43 1013.2
20260504140545 72 338 3.0 9.0 0.00 0.00 0.00 44 1014.0
20260504130544 70 315 3.0 6.0 0.00 0.00 0.00 49 1014.4
20260504110544 71 225 2.0 7.0 0.00 0.00 0.00 47 1015.1
20260504100544 71 225 2.0 6.0 0.00 0.00 0.00 45 1015.5
20260504081544 65 180 3.0 6.0 0.00 0.00 0.00 60 1016.5
20260504080543 64 158 3.0 7.0 0.00 0.00 0.00 60 1016.6